Date,TemperatureHighF,TemperatureAvgF,TemperatureLowF,DewpointHighF,DewpointAvgF,DewpointLowF,HumidityHigh,HumidityAvg,HumidityLow,PressureMaxIn,PressureMinIn,WindSpeedMaxMPH,WindSpeedAvgMPH,GustSpeedMaxMPH,PrecipitationSumIn
2013-7-1,72.4,65.0,53.9,59.6,52.7,46.6,81,64,58,29.92,29.79,15,4,15,0.00
2013-7-2,73.0,68.2,58.0,58.4,53.8,49.6,85,60,49,29.90,29.85,12,3,12,0.02
2013-7-3,81.1,73.5,55.9,67.4,63.9,50.8,87,72,60,29.89,29.82,10,2,10,0.10
2013-7-4,79.6,74.8,61.3,67.4,61.9,58.5,92,65,54,29.91,29.85,11,2,11,0.00
2013-7-5,84.7,78.5,64.2,67.0,64.1,58.6,84,62,54,29.90,29.82,8,2,8,0.00
2013-7-6,87.4,82.5,65.8,70.2,67.8,61.8,87,62,52,29.88,29.76,27,3,27,0.00
2013-7-7,83.2,77.8,72.3,71.9,69.3,66.9,83,75,66,29.79,29.73,8,2,8,0.02
2013-7-8,81.8,74.9,69.4,73.7,68.5,65.4,89,81,69,29.79,29.75,9,2,9,0.02
2013-7-9,86.7,79.5,67.0,72.3,70.1,64.6,92,73,62,29.77,29.63,26,2,26,0.07
2013-7-10,85.4,76.5,63.6,73.9,62.6,54.5,92,62,50,29.75,29.56,21,4,21,0.01
2013-7-11,77.1,71.3,61.3,59.9,57.1,52.3,72,61,54,29.88,29.84,9,3,9,0.00
2013-7-12,77.5,72.5,52.3,61.9,59.3,48.2,86,64,52,29.98,29.89,9,2,9,0.01
2013-7-13,83.1,77.2,57.3,65.3,60.1,53.5,87,56,44,30.01,29.95,25,3,25,0.01
2013-7-14,89.7,83.2,62.2,70.9,68.1,58.0,86,61,50,30.06,30.01,27,4,27,0.01
2013-7-15,91.7,85.8,70.3,73.8,71.4,65.6,85,62,52,30.09,30.01,31,8,31,0.01
2013-7-16,93.0,87.4,72.6,76.2,73.5,68.8,88,64,54,30.08,30.00,30,5,30,0.01
2013-7-17,94.4,87.1,71.9,76.5,73.3,67.8,87,64,52,30.04,29.92,29,5,29,0.01
2013-7-18,94.0,88.1,72.1,76.2,72.8,67.7,87,61,51,29.94,29.70,30,5,30,0.01
2013-7-19,93.1,86.9,76.2,74.3,71.1,63.5,82,59,48,29.70,29.48,27,6,27,0.03
2013-7-20,83.8,74.7,66.7,67.0,62.2,55.6,81,65,44,29.75,29.52,12,3,12,0.00
2013-7-21,78.9,73.2,56.4,59.3,56.4,48.3,74,56,47,29.83,29.74,8,3,8,0.00
2013-7-22,67.2,67.1,67.0,56.0,55.9,55.9,67,67,67,29.76,29.76,4,2,6,0.00
2013-7-23,76.9,71.9,61.8,69.2,58.4,48.3,85,63,52,29.65,29.47,18,6,18,0.00
2013-7-24,70.8,66.6,49.9,52.6,49.2,43.0,78,54,44,29.84,29.73,11,2,11,0.00
2013-7-25,76.4,70.7,50.1,56.9,53.1,45.8,87,54,46,29.91,29.83,9,1,9,0.00
2013-7-26,79.6,71.7,58.0,62.7,59.8,50.3,86,67,54,29.86,29.69,11,2,11,0.08
2013-7-27,76.9,67.1,57.0,64.5,57.9,49.0,88,72,58,29.67,29.53,12,3,12,0.22
2013-7-28,68.8,63.7,57.7,56.8,53.4,50.4,78,69,62,29.74,29.62,13,3,13,0.00
2013-7-29,72.1,66.7,58.6,57.7,55.6,52.2,82,68,59,29.96,29.83,7,1,7,0.00
2013-7-30,78.6,70.9,50.5,59.6,56.6,47.1,89,61,50,30.03,29.90,8,1,8,0.00
2013-7-31,67.6,64.7,61.5,63.3,60.9,56.2,91,87,80,29.91,29.71,8,0,8,0.62